Regional Weather Roundup
Issued by NWS Sioux Falls, SD

Home | Current Version | Previous Version | Text Only | Print | Product List | Glossary Off
Versions: 1 2 3 4 5 6 7 8 9 10 11 12 13 14 15 16 17 18 19 20 21 22 23 24 25 26 27 28 29 30 31 32 33 34 35 36 37 38 39 40 41 42 43 44 45 46 47 48 49 50

000
ASUS43 KFSD 230202
RWRFSD

WEATHER ROUNDUP FOR SE SOUTH DAKOTA/SW MINNESOTA/NW IOWA
NATIONAL WEATHER SERVICE SIOUX FALLS SD
900 PM CDT SAT APR 22 2017

NOTE: "FAIR" INDICATES FEW OR NO CLOUDS BELOW 12,000 FEET WITH NO
SIGNIFICANT WEATHER AND OR OBSTRUCTIONS TO VISIBILITY.


SDZ038>040-050-052>070-230300-
SOUTHEAST SOUTH DAKOTA

CITY           SKY/WX    TMP DP  RH WIND       PRES   REMARKS
BROOKINGS      CLEAR     56  37  49 SW7       30.13
CHAMBERLAIN    CLEAR     53  37  55 SE7       30.11F
HURON          CLEAR     57  37  47 S8        30.11S
MADISON        FAIR      57  36  44 SW5       30.14F
MITCHELL       CLEAR     61  38  42 S5        30.13F
SIOUX FALLS    PTCLDY    58  38  47 SW5       30.14F
WINNER         FAIR      58  33  39 S9        30.12F
YANKTON        CLEAR     59  34  38 SE6       30.17S
$$

MNZ071-072-080-081-089-090-097-098-230300-
SOUTHWEST MINNESOTA

CITY           SKY/WX    TMP DP  RH WIND       PRES   REMARKS
FAIRMONT       CLEAR     59  36  42 W6        30.15S
JACKSON        CLEAR     55  32  41 W3        30.16S
LUVERNE        CLEAR     50  34  53 SW7       30.15F
MARSHALL       CLEAR     58  35  42 W8        30.12F
MONTEVIDEO     CLEAR     59  32  36 W7        30.10S
PIPESTONE      CLEAR     55  36  47 W3        30.14S
REDWOOD FALLS  CLEAR     61  34  36 SW7       30.11F
TRACY          CLEAR     57  37  46 SW5       30.13F
WINDOM         CLEAR     57  34  41 SW3       30.15S
WORTHINGTON    CLEAR     57  35  43 SW7       30.16S
$$

IAZ001>003-012>014-020>022-031-032-NEZ013-014-SDZ071-230300-
NORTHWEST IOWA

CITY           SKY/WX    TMP DP  RH WIND       PRES   REMARKS
CHEROKEE       CLEAR     53  37  55 CALM      30.18R
DENISON        CLEAR     55  36  47 CALM      30.19S
ESTHERVILLE    CLEAR     55  37  50 SW6       30.16R
LE MARS        CLEAR     54  39  58 CALM      30.20R
ORANGE CITY    CLEAR     52  41  66 W7        30.19R
SHELDON        CLEAR     55  36  47 SW6       30.16S
SIOUX CITY     CLEAR     61  33  35 CALM      30.19R
SPENCER        CLEAR     50  38  63 SW6       30.17R
STORM LAKE     CLEAR     59  30  33 NW6       30.18S
$$

ABBREVIATIONS USED IN REMARKS
   TC - TEMPERATURE IN CELSIUS
  WCI - WIND CHILL INDEX
   HX - HEAT INDEX
  VSB - VISIBILITY





USA.gov is the U.S. government's official web portal to all federal, state and local government web resources and services.